Hauptseite
METAR-TAF:

METAR-TAF

Flughäfen :

Bütgenbach, Belgien

Elsenborn

Breite: 50-28N, Länge: 006-11E, Höhe: 564 m

Beobachtung

Neuester Wetterbericht von vor 36 Minuten, um 14:13 UTC
Wind 6 kt aus West/Südwest
Temperatur 12°C
Luftfeuchtigkeit 71%
Luftdruck 1021 hPa
Sichtweite 10 km oder mehr

METAR: EBLB 201413Z AUTO 25006KT 9999 BKN040/// 12/07 Q1021 BLU

Zeit: 16:49 (14:49 UTC)


TAF: fehlend

Wetterbeobachtungen und Prognosen von mehr als 4000 Flughäfen (METAR und TAF Bericht).

Die verfügbaren Stationen werden durch gelbe und rote Markierungen auf der Karte dargestellt.

Führen Sie die Maus auf sie, um den Namen der Station zu sehen.

Darauf klicken, um die Beobachtung von Wetterbeobachtungen und Prognosen zu sehen.

Um die Karte zu ändern : klicken Sie auf den grünen Tasten mit einem schwarzen Kreuz Zum Vergrößern, auf den grünen Button mit einem Gedankenstrich zu verkleinern, oder auf die grünen Pfeile für benachbarte Karten.


METAR-TAF: